Weather in Digne-les-Bains

France     44°05′36″N   6°14′09″E
temp.,
°C
wind,
m/s
gust,
m/s
humid.,
%
clouds,
%
prec.,
mm/h
press.,
hPa
HPBL,
m
8 may, sat
sat823:00+7nne2275100 0.0 101624
02:00+5nne228068 0.0 101720
05:00+5ne217285 0.0 101815
08:00+8nne125096 0.0 101897
11:00+16wnw12319 0.0 1017587
14:00+19wsw35305 0.0 10171374
17:00+18wsw445041 0.0 10161249
20:00+15wsw22725 0.0 101749
9 may, sun
sun923:00+9ene11905 0.0 101910
02:00+9e22905 0.0 101819
05:00+8e229024 0.0 101725
08:00+12ese237681 0.0 1016138
11:00+19sse254860 0.0 10151168
14:00+21sse4839100 0.0 10132004
17:00+20se593897 0.0 10121438
20:00+14e476493 0.1 1012214
10 may, mon
mon1023:00+11ese3487100 0.3 101487
02:00+10ene449299 1.6 1014104
05:00+10e4592100 1.2 1013124
08:00+12ese3791100 2.3 1013244
11:00+12ese2791100 5.7 1013714
14:00+12ese41388100 11.8 10121370
17:00+12se2492100 2.1 1012149
20:00+11se388927 4.9 1012597
11 may, tue
tue1123:00+9ese2292100 1.5 101326
02:00+9ese229499 2.4 101241
05:00+8ese239691 1.7 101172
08:00+10se269196 4.5 1009408
11:00+12se247772 2.1 10081028
14:00+13wsw3478100 7.1 1008785
17:00+11wnw1378100 5.2 1007662
20:00+9nne238998 6.9 100799
12 may, wed
wed1223:00+7wnw2595100 0.0 1008258
02:00+6nw3795100 0.1 1008474
05:00+5nnw259625 0.0 1009278
08:00+6nw369021 0.0 1009431
11:00+11nw46614 0.0 10071077
14:00+14nw56512 0.0 10061186
17:00+13wnw45510 0.0 10061036
20:00+10wnw24690 0.0 1007154